• In Russia
  • List of Countries
  • For 7 days
  • Water Temperature
  • Satellite Maps
  • Weather Map
  • Weather Widgets
  • user-avatar
    Login

    Hourly Weather Wlora

    Today, 25 June, Sunday

    Time Temperature Precipitation Wind Pressure Humidity
    00:00 +25°C° 0 mm 2 mps 760 mmHg 67%
    01:00 +25°C° 0 mm 2 mps 760 mmHg 67%
    02:00 +24°C° 0 mm 2 mps 760 mmHg 67%
    03:00 +24°C° 0 mm 2 mps 760 mmHg 68%
    04:00 +24°C° 0 mm 2 mps 760 mmHg 68%
    05:00 +26°C° 0 mm 1 mps 760 mmHg 63%
    06:00 +28°C° 0 mm 1 mps 760 mmHg 57%
    07:00 +30°C° 0 mm 1 mps 760 mmHg 51%
    08:00 +32°C° 0 mm 1 mps 760 mmHg 47%
    09:00 +33°C° 0 mm 1 mps 760 mmHg 43%
    10:00 +35°C° 0 mm 1 mps 760 mmHg 38%
    11:00 +36°C° 0 mm 2 mps 760 mmHg 38%
    12:00 +36°C° 0 mm 2 mps 760 mmHg 38%
    13:00 +36°C° 0 mm 3 mps 759 mmHg 37%
    14:00 +36°C° 0 mm 3 mps 759 mmHg 39%
    15:00 +35°C° 0 mm 3 mps 759 mmHg 40%
    16:00 +34°C° 0 mm 3 mps 758 mmHg 41%
    17:00 +33°C° 0.1 mm 3 mps 758 mmHg 49%
    18:00 +30°C° 0.1 mm 2 mps 758 mmHg 57%
    19:00 +28°C° 0.1 mm 2 mps 758 mmHg 65%
    20:00 +27°C° 0.1 mm 2 mps 758 mmHg 66%
    21:00 +27°C° 0.1 mm 2 mps 759 mmHg 67%
    22:00 +26°C° 0.1 mm 2 mps 759 mmHg 67%
    23:00 +26°C° 0 mm 2 mps 759 mmHg 68%

    Tomorrow, 26 June, Monday

    Time Temperature Precipitation Wind Pressure Humidity
    00:00 +25°C° 0 mm 2 mps 758 mmHg 69%
    01:00 +25°C° 0 mm 2 mps 758 mmHg 69%
    02:00 +25°C° 0 mm 2 mps 758 mmHg 71%
    03:00 +25°C° 0 mm 2 mps 758 mmHg 72%
    04:00 +24°C° 0 mm 2 mps 758 mmHg 74%
    05:00 +26°C° 0 mm 2 mps 758 mmHg 67%
    06:00 +28°C° 0 mm 2 mps 758 mmHg 60%
    07:00 +30°C° 0 mm 2 mps 758 mmHg 54%
    08:00 +31°C° 0 mm 3 mps 758 mmHg 49%
    09:00 +33°C° 0 mm 3 mps 758 mmHg 45%
    10:00 +34°C° 0 mm 3 mps 759 mmHg 41%
    11:00 +35°C° 0 mm 3 mps 758 mmHg 40%
    12:00 +35°C° 0 mm 3 mps 758 mmHg 39%
    13:00 +35°C° 0 mm 4 mps 758 mmHg 39%
    14:00 +35°C° 0 mm 3 mps 758 mmHg 41%
    15:00 +34°C° 0 mm 3 mps 757 mmHg 43%
    16:00 +33°C° 0 mm 3 mps 757 mmHg 45%
    17:00 +31°C° 0 mm 3 mps 757 mmHg 53%
    18:00 +29°C° 0 mm 2 mps 758 mmHg 61%
    19:00 +27°C° 0 mm 1 mps 758 mmHg 69%
    20:00 +26°C° 0 mm 1 mps 758 mmHg 71%
    21:00 +25°C° 0 mm 1 mps 758 mmHg 73%
    22:00 +24°C° 0 mm 1 mps 759 mmHg 75%
    23:00 +24°C° 0 mm 1 mps 759 mmHg 75%

    Day after tomorrow, 27 June, Tuesday

    Time Temperature Precipitation Wind Pressure Humidity
    00:00 +22°C° 0 mm 0 mps 759 mmHg 76%
    01:00 +21°C° 0 mm 0 mps 759 mmHg 76%
    02:00 +23°C° 0 mm 1 mps 758 mmHg 75%
    03:00 +23°C° 0 mm 1 mps 758 mmHg 74%
    04:00 +23°C° 0 mm 1 mps 758 mmHg 73%
    05:00 +25°C° 0 mm 1 mps 758 mmHg 65%
    06:00 +27°C° 0 mm 1 mps 759 mmHg 57%
    07:00 +30°C° 0 mm 1 mps 759 mmHg 49%
    08:00 +31°C° 0 mm 1 mps 759 mmHg 46%
    09:00 +32°C° 0 mm 2 mps 759 mmHg 43%
    10:00 +34°C° 0 mm 2 mps 759 mmHg 40%
    11:00 +35°C° 0 mm 2 mps 759 mmHg 39%
    12:00 +35°C° 0 mm 2 mps 758 mmHg 39%
    13:00 +35°C° 0 mm 2 mps 758 mmHg 38%
    14:00 +35°C° 0 mm 3 mps 758 mmHg 39%
    15:00 +35°C° 0 mm 3 mps 758 mmHg 39%
    16:00 +34°C° 0 mm 3 mps 758 mmHg 40%
    17:00 +31°C° 0 mm 2 mps 758 mmHg 49%
    18:00 +29°C° 0 mm 2 mps 758 mmHg 57%
    19:00 +27°C° 0 mm 2 mps 758 mmHg 66%
    20:00 +26°C° 0 mm 2 mps 758 mmHg 65%
    21:00 +26°C° 0 mm 2 mps 758 mmHg 63%
    22:00 +25°C° 0 mm 3 mps 758 mmHg 62%
    23:00 +25°C° 0 mm 3 mps 758 mmHg 63%

    28 June, Wednesday

    Time Temperature Precipitation Wind Pressure Humidity
    00:00 +25°C° 0 mm 3 mps 758 mmHg 63%
    01:00 +25°C° 0 mm 3 mps 758 mmHg 64%
    02:00 +25°C° 0 mm 3 mps 758 mmHg 63%
    03:00 +25°C° 0 mm 3 mps 758 mmHg 62%
    04:00 +25°C° 0 mm 4 mps 758 mmHg 62%
    05:00 +27°C° 0 mm 4 mps 758 mmHg 57%
    06:00 +29°C° 0 mm 4 mps 758 mmHg 52%
    07:00 +32°C° 0 mm 4 mps 758 mmHg 47%
    08:00 +33°C° 0 mm 5 mps 758 mmHg 42%
    09:00 +35°C° 0 mm 5 mps 758 mmHg 38%
    10:00 +36°C° 0 mm 5 mps 758 mmHg 33%
    11:00 +37°C° 0 mm 5 mps 758 mmHg 33%
    12:00 +38°C° 0 mm 6 mps 757 mmHg 32%
    13:00 +38°C° 0 mm 6 mps 757 mmHg 32%
    14:00 +36°C° 0 mm 5 mps 757 mmHg 33%
    15:00 +36°C° 0 mm 5 mps 757 mmHg 35%
    16:00 +35°C° 0 mm 5 mps 757 mmHg 37%
    17:00 +33°C° 0 mm 5 mps 757 mmHg 44%
    18:00 +30°C° 0 mm 5 mps 757 mmHg 51%
    19:00 +28°C° 0 mm 4 mps 757 mmHg 58%
    20:00 +28°C° 0 mm 4 mps 757 mmHg 58%
    21:00 +27°C° 0 mm 5 mps 758 mmHg 57%
    22:00 +27°C° 0 mm 5 mps 758 mmHg 57%
    23:00 +27°C° 0 mm 5 mps 758 mmHg 56%

    29 June, Thursday

    Time Temperature Precipitation Wind Pressure Humidity
    00:00 +27°C° 0 mm 5 mps 757 mmHg 56%
    01:00 +27°C° 0 mm 5 mps 757 mmHg 55%
    02:00 +27°C° 0 mm 5 mps 757 mmHg 55%
    03:00 +26°C° 0 mm 6 mps 757 mmHg 55%
    04:00 +26°C° 0 mm 6 mps 757 mmHg 55%
    05:00 +28°C° 0 mm 6 mps 757 mmHg 51%
    06:00 +30°C° 0 mm 6 mps 757 mmHg 46%
    07:00 +33°C° 0 mm 6 mps 758 mmHg 41%
    08:00 +34°C° 0 mm 6 mps 758 mmHg 37%
    09:00 +36°C° 0 mm 7 mps 758 mmHg 32%
    10:00 +39°C° 0 mm 7 mps 758 mmHg 28%
    11:00 +39°C° 0 mm 7 mps 758 mmHg 28%
    12:00 +39°C° 0 mm 7 mps 757 mmHg 29%
    13:00 +39°C° 0 mm 8 mps 757 mmHg 29%
    14:00 +39°C° 0 mm 8 mps 757 mmHg 30%
    15:00 +38°C° 0 mm 7 mps 757 mmHg 31%
    16:00 +38°C° 0 mm 7 mps 757 mmHg 32%
    17:00 +35°C° 0 mm 7 mps 757 mmHg 39%
    18:00 +33°C° 0 mm 7 mps 757 mmHg 45%
    19:00 +30°C° 0 mm 6 mps 757 mmHg 52%
    20:00 +29°C° 0 mm 6 mps 757 mmHg 52%
    21:00 +28°C° 0 mm 6 mps 758 mmHg 51%
    22:00 +28°C° 0 mm 6 mps 758 mmHg 51%
    23:00 +28°C° 0 mm 6 mps 758 mmHg 51%

    30 June, Friday

    Time Temperature Precipitation Wind Pressure Humidity
    00:00 +27°C° 0 mm 6 mps 758 mmHg 51%
    01:00 +27°C° 0 mm 6 mps 758 mmHg 51%
    02:00 +27°C° 0 mm 6 mps 758 mmHg 50%
    03:00 +27°C° 0 mm 6 mps 758 mmHg 50%
    04:00 +27°C° 0 mm 5 mps 758 mmHg 49%
    05:00 +28°C° 0 mm 5 mps 758 mmHg 45%
    06:00 +30°C° 0 mm 5 mps 758 mmHg 41%
    07:00 +33°C° 0 mm 5 mps 758 mmHg 37%
    08:00 +35°C° 0 mm 5 mps 758 mmHg 34%
    09:00 +36°C° 0 mm 5 mps 758 mmHg 31%
    10:00 +39°C° 0 mm 5 mps 758 mmHg 27%
    11:00 +39°C° 0 mm 5 mps 758 mmHg 26%
    12:00 +40°C° 0 mm 6 mps 758 mmHg 25%
    13:00 +40°C° 0 mm 6 mps 758 mmHg 23%
    14:00 +40°C° 0 mm 6 mps 757 mmHg 24%
    15:00 +40°C° 0 mm 6 mps 757 mmHg 25%
    16:00 +39°C° 0 mm 6 mps 756 mmHg 26%
    17:00 +36°C° 0 mm 6 mps 756 mmHg 34%
    18:00 +33°C° 0 mm 6 mps 756 mmHg 41%
    19:00 +30°C° 0 mm 6 mps 756 mmHg 49%
    20:00 +29°C° 0 mm 5 mps 757 mmHg 49%
    21:00 +28°C° 0 mm 5 mps 757 mmHg 49%
    22:00 +28°C° 0 mm 5 mps 757 mmHg 49%
    23:00 +27°C° 0 mm 4 mps 757 mmHg 50%
    Show more